owner,sensor,date,latitude,longitude,vertical_datum,sea_water_practical_salinity,qcFlag 
TABS,ioos:station:wmo:42050:1,2017-09-01T00:00:00Z,28.8425,-94.2433,2.0,25.7983,11111222 
TABS,ioos:station:wmo:42050:1,2017-09-01T00:30:00Z,28.8425,-94.2433,2.0,26.6907,11111222 
TABS,ioos:station:wmo:42050:1,2017-09-01T01:00:00Z,28.8425,-94.2433,2.0,27.559,11111222 
TABS,ioos:station:wmo:42050:1,2017-09-01T01:30:00Z,28.8425,-94.2433,2.0,28.1906,11111222 
TABS,ioos:station:wmo:42050:1,2017-09-01T02:00:00Z,28.8425,-94.2433,2.0,28.7138,11111222 
TABS,ioos:station:wmo:42050:1,2017-09-01T02:30:00Z,28.8425,-94.2433,2.0,28.3503,11111222 
TABS,ioos:station:wmo:42050:1,2017-09-01T03:00:00Z,28.8425,-94.2433,2.0,28.7125,11111222 
TABS,ioos:station:wmo:42050:1,2017-09-01T03:30:00Z,28.8425,-94.2433,2.0,28.2823,11111222 
TABS,ioos:station:wmo:42050:1,2017-09-01T04:00:00Z,28.8425,-94.2433,2.0,28.1751,11111222 
TABS,ioos:station:wmo:42050:1,2017-09-01T04:30:00Z,28.8425,-94.2433,2.0,27.3988,11111222 
TABS,ioos:station:wmo:42050:1,2017-09-01T05:00:00Z,28.8425,-94.2433,2.0,28.3735,11111222 
TABS,ioos:station:wmo:42050:1,2017-09-01T05:30:00Z,28.8425,-94.2433,2.0,27.053,11111222 
TABS,ioos:station:wmo:42050:1,2017-09-01T06:00:00Z,28.8425,-94.2433,2.0,27.1524,11111222 
TABS,ioos:station:wmo:42050:1,2017-09-01T06:30:00Z,28.8425,-94.2433,2.0,26.9343,11111222 
TABS,ioos:station:wmo:42050:1,2017-09-01T07:00:00Z,28.8425,-94.2433,2.0,26.6681,11111222 
TABS,ioos:station:wmo:42050:1,2017-09-01T07:30:00Z,28.8425,-94.2433,2.0,26.1145,11111222 
TABS,ioos:station:wmo:42050:1,2017-09-01T08:00:00Z,28.8425,-94.2433,2.0,25.148,11111222 
TABS,ioos:station:wmo:42050:1,2017-09-01T08:30:00Z,28.8425,-94.2433,2.0,24.4822,11111222 
TABS,ioos:station:wmo:42050:1,2017-09-01T09:00:00Z,28.8425,-94.2433,2.0,24.5404,11111222 
TABS,ioos:station:wmo:42050:1,2017-09-01T09:30:00Z,28.8425,-94.2433,2.0,25.0793,11111222 
TABS,ioos:station:wmo:42050:1,2017-09-01T10:00:00Z,28.8425,-94.2433,2.0,23.7306,11111222 
TABS,ioos:station:wmo:42050:1,2017-09-01T10:30:00Z,28.8425,-94.2433,2.0,22.8995,11111222 
TABS,ioos:station:wmo:42050:1,2017-09-01T11:00:00Z,28.8425,-94.2433,2.0,22.2311,11111222 
TABS,ioos:station:wmo:42050:1,2017-09-01T11:30:00Z,28.8425,-94.2433,2.0,21.9474,11111222 
TABS,ioos:station:wmo:42050:1,2017-09-01T12:00:00Z,28.8425,-94.2433,2.0,21.8792,11111222 
TABS,ioos:station:wmo:42050:1,2017-09-01T12:30:00Z,28.8425,-94.2433,2.0,21.7643,11111222 
TABS,ioos:station:wmo:42050:1,2017-09-01T13:00:00Z,28.8425,-94.2433,2.0,21.5049,11111222 
TABS,ioos:station:wmo:42050:1,2017-09-01T13:30:00Z,28.8425,-94.2433,2.0,21.6395,11111222 
TABS,ioos:station:wmo:42050:1,2017-09-01T14:00:00Z,28.8425,-94.2433,2.0,21.523,11111222 
TABS,ioos:station:wmo:42050:1,2017-09-01T14:30:00Z,28.8425,-94.2433,2.0,19.8018,11111222 
TABS,ioos:station:wmo:42050:1,2017-09-01T15:00:00Z,28.8425,-94.2433,2.0,19.056,11111222 
TABS,ioos:station:wmo:42050:1,2017-09-01T15:30:00Z,28.8425,-94.2433,2.0,19.4658,11111222 
TABS,ioos:station:wmo:42050:1,2017-09-01T16:00:00Z,28.8425,-94.2433,2.0,20.1139,11111222 
TABS,ioos:station:wmo:42050:1,2017-09-01T16:30:00Z,28.8425,-94.2433,2.0,19.3059,11111222 
TABS,ioos:station:wmo:42050:1,2017-09-01T17:00:00Z,28.8425,-94.2433,2.0,17.8567,11111222 
TABS,ioos:station:wmo:42050:1,2017-09-01T17:30:00Z,28.8425,-94.2433,2.0,15.2476,11111222 
TABS,ioos:station:wmo:42050:1,2017-09-01T18:00:00Z,28.8425,-94.2433,2.0,15.7146,11111222 
TABS,ioos:station:wmo:42050:1,2017-09-01T18:30:00Z,28.8425,-94.2433,2.0,16.279,11111222 
TABS,ioos:station:wmo:42050:1,2017-09-01T19:00:00Z,28.8425,-94.2433,2.0,16.5232,11111222 
TABS,ioos:station:wmo:42050:1,2017-09-01T19:30:00Z,28.8425,-94.2433,2.0,16.5835,11111222 
TABS,ioos:station:wmo:42050:1,2017-09-01T20:00:00Z,28.8425,-94.2433,2.0,16.888,11111222 
TABS,ioos:station:wmo:42050:1,2017-09-01T20:30:00Z,28.8425,-94.2433,2.0,17.1779,11111222 
TABS,ioos:station:wmo:42050:1,2017-09-01T21:00:00Z,28.8425,-94.2433,2.0,17.3857,11111222 
TABS,ioos:station:wmo:42050:1,2017-09-01T21:30:00Z,28.8425,-94.2433,2.0,17.6566,11111222 
TABS,ioos:station:wmo:42050:1,2017-09-01T22:00:00Z,28.8425,-94.2433,2.0,17.9851,11111222 
TABS,ioos:station:wmo:42050:1,2017-09-01T22:30:00Z,28.8425,-94.2433,2.0,18.2851,11111222 
TABS,ioos:station:wmo:42050:1,2017-09-01T23:00:00Z,28.8425,-94.2433,2.0,18.1322,11111222 
TABS,ioos:station:wmo:42050:1,2017-09-01T23:30:00Z,28.8425,-94.2433,2.0,18.1734,11111222 
TABS,ioos:station:wmo:42050:1,2017-09-02T00:00:00Z,28.8425,-94.2433,2.0,18.3442,11111222 
TABS,ioos:station:wmo:42050:1,2017-09-02T00:30:00Z,28.8425,-94.2433,2.0,18.1772,11111222 
TABS,ioos:station:wmo:42050:1,2017-09-02T01:00:00Z,28.8425,-94.2433,2.0,18.1433,11111222 
TABS,ioos:station:wmo:42050:1,2017-09-02T01:30:00Z,28.8425,-94.2433,2.0,17.781,11111222 
TABS,ioos:station:wmo:42050:1,2017-09-02T02:00:00Z,28.8425,-94.2433,2.0,18.0142,11111222 
TABS,ioos:station:wmo:42050:1,2017-09-02T02:30:00Z,28.8425,-94.2433,2.0,17.9264,11111222 
TABS,ioos:station:wmo:42050:1,2017-09-02T03:00:00Z,28.8425,-94.2433,2.0,17.881,11111222 
TABS,ioos:station:wmo:42050:1,2017-09-02T03:30:00Z,28.8425,-94.2433,2.0,17.7229,11111222 
TABS,ioos:station:wmo:42050:1,2017-09-02T04:00:00Z,28.8425,-94.2433,2.0,17.5444,11111222 
TABS,ioos:station:wmo:42050:1,2017-09-02T04:30:00Z,28.8425,-94.2433,2.0,17.421,11111222 
TABS,ioos:station:wmo:42050:1,2017-09-02T05:00:00Z,28.8425,-94.2433,2.0,17.6808,11111222 
TABS,ioos:station:wmo:42050:1,2017-09-02T05:30:00Z,28.8425,-94.2433,2.0,17.4222,11111222 
TABS,ioos:station:wmo:42050:1,2017-09-02T06:00:00Z,28.8425,-94.2433,2.0,17.0909,11111222 
TABS,ioos:station:wmo:42050:1,2017-09-02T06:30:00Z,28.8425,-94.2433,2.0,17.2925,11111222 
TABS,ioos:station:wmo:42050:1,2017-09-02T07:00:00Z,28.8425,-94.2433,2.0,17.2345,11111222 
TABS,ioos:station:wmo:42050:1,2017-09-02T07:30:00Z,28.8425,-94.2433,2.0,17.588,11111222 
TABS,ioos:station:wmo:42050:1,2017-09-02T08:00:00Z,28.8425,-94.2433,2.0,17.6049,11111222 
TABS,ioos:station:wmo:42050:1,2017-09-02T08:30:00Z,28.8425,-94.2433,2.0,17.4455,11111222 
TABS,ioos:station:wmo:42050:1,2017-09-02T09:00:00Z,28.8425,-94.2433,2.0,17.7725,11111222 
TABS,ioos:station:wmo:42050:1,2017-09-02T09:30:00Z,28.8425,-94.2433,2.0,17.5956,11111222 
TABS,ioos:station:wmo:42050:1,2017-09-02T10:00:00Z,28.8425,-94.2433,2.0,17.6316,11111222 
TABS,ioos:station:wmo:42050:1,2017-09-02T10:30:00Z,28.8425,-94.2433,2.0,18.1702,11111222 
TABS,ioos:station:wmo:42050:1,2017-09-02T11:00:00Z,28.8425,-94.2433,2.0,17.65,11111222 
TABS,ioos:station:wmo:42050:1,2017-09-02T11:30:00Z,28.8425,-94.2433,2.0,17.8638,11111222 
TABS,ioos:station:wmo:42050:1,2017-09-02T12:00:00Z,28.8425,-94.2433,2.0,18.3969,11111222 
TABS,ioos:station:wmo:42050:1,2017-09-02T12:30:00Z,28.8425,-94.2433,2.0,17.6736,11111222 
TABS,ioos:station:wmo:42050:1,2017-09-02T13:00:00Z,28.8425,-94.2433,2.0,18.0208,11111222 
TABS,ioos:station:wmo:42050:1,2017-09-02T13:30:00Z,28.8425,-94.2433,2.0,17.914,11111222 
TABS,ioos:station:wmo:42050:1,2017-09-02T14:00:00Z,28.8425,-94.2433,2.0,18.1243,11111222 
TABS,ioos:station:wmo:42050:1,2017-09-02T14:30:00Z,28.8425,-94.2433,2.0,17.9398,11111222 
TABS,ioos:station:wmo:42050:1,2017-09-02T15:00:00Z,28.8425,-94.2433,2.0,18.0321,11111222 
TABS,ioos:station:wmo:42050:1,2017-09-02T15:30:00Z,28.8425,-94.2433,2.0,17.7577,11111222 
TABS,ioos:station:wmo:42050:1,2017-09-02T16:00:00Z,28.8425,-94.2433,2.0,17.5596,11111222 
TABS,ioos:station:wmo:42050:1,2017-09-02T16:30:00Z,28.8425,-94.2433,2.0,17.587,11111222 
TABS,ioos:station:wmo:42050:1,2017-09-02T17:00:00Z,28.8425,-94.2433,2.0,17.8724,11111222 
TABS,ioos:station:wmo:42050:1,2017-09-02T17:30:00Z,28.8425,-94.2433,2.0,17.7413,11111222 
TABS,ioos:station:wmo:42050:1,2017-09-02T18:00:00Z,28.8425,-94.2433,2.0,17.3921,11111222 
TABS,ioos:station:wmo:42050:1,2017-09-02T18:30:00Z,28.8425,-94.2433,2.0,17.776,11111222 
TABS,ioos:station:wmo:42050:1,2017-09-02T19:00:00Z,28.8425,-94.2433,2.0,17.7016,11111222 
TABS,ioos:station:wmo:42050:1,2017-09-02T19:30:00Z,28.8425,-94.2433,2.0,17.4339,11111222 
TABS,ioos:station:wmo:42050:1,2017-09-02T20:00:00Z,28.8425,-94.2433,2.0,17.172,11111222 
TABS,ioos:station:wmo:42050:1,2017-09-02T20:30:00Z,28.8425,-94.2433,2.0,17.107,11111222 
TABS,ioos:station:wmo:42050:1,2017-09-02T21:00:00Z,28.8425,-94.2433,2.0,16.9845,11111222 
TABS,ioos:station:wmo:42050:1,2017-09-02T21:30:00Z,28.8425,-94.2433,2.0,17.1778,11111222 
TABS,ioos:station:wmo:42050:1,2017-09-02T22:00:00Z,28.8425,-94.2433,2.0,16.7992,11111222 
TABS,ioos:station:wmo:42050:1,2017-09-02T22:30:00Z,28.8425,-94.2433,2.0,16.8476,11111222 
TABS,ioos:station:wmo:42050:1,2017-09-02T23:00:00Z,28.8425,-94.2433,2.0,16.9641,11111222 
TABS,ioos:station:wmo:42050:1,2017-09-02T23:30:00Z,28.8425,-94.2433,2.0,17.2891,11111222 
TABS,ioos:station:wmo:42050:1,2017-09-03T00:00:00Z,28.8425,-94.2433,2.0,17.2534,11111222 
TABS,ioos:station:wmo:42050:1,2017-09-03T00:30:00Z,28.8425,-94.2433,2.0,17.6873,11111222 
TABS,ioos:station:wmo:42050:1,2017-09-03T01:00:00Z,28.8425,-94.2433,2.0,17.5643,11111222 
TABS,ioos:station:wmo:42050:1,2017-09-03T01:30:00Z,28.8425,-94.2433,2.0,17.5618,11111222 
TABS,ioos:station:wmo:42050:1,2017-09-03T02:00:00Z,28.8425,-94.2433,2.0,17.514,11111222 
TABS,ioos:station:wmo:42050:1,2017-09-03T02:30:00Z,28.8425,-94.2433,2.0,17.4348,11111222 
TABS,ioos:station:wmo:42050:1,2017-09-03T03:00:00Z,28.8425,-94.2433,2.0,17.1948,11111222 
TABS,ioos:station:wmo:42050:1,2017-09-03T03:30:00Z,28.8425,-94.2433,2.0,16.988,11111222 
TABS,ioos:station:wmo:42050:1,2017-09-03T04:00:00Z,28.8425,-94.2433,2.0,17.1934,11111222 
TABS,ioos:station:wmo:42050:1,2017-09-03T04:30:00Z,28.8425,-94.2433,2.0,17.8994,11111222 
TABS,ioos:station:wmo:42050:1,2017-09-03T05:00:00Z,28.8425,-94.2433,2.0,17.8911,11111222 
TABS,ioos:station:wmo:42050:1,2017-09-03T05:30:00Z,28.8425,-94.2433,2.0,18.2389,11111222 
TABS,ioos:station:wmo:42050:1,2017-09-03T06:00:00Z,28.8425,-94.2433,2.0,18.4167,11111222 
TABS,ioos:station:wmo:42050:1,2017-09-03T06:30:00Z,28.8425,-94.2433,2.0,19.3413,11111222 
TABS,ioos:station:wmo:42050:1,2017-09-03T07:00:00Z,28.8425,-94.2433,2.0,19.3646,11111222 
TABS,ioos:station:wmo:42050:1,2017-09-03T07:30:00Z,28.8425,-94.2433,2.0,20.3219,11111222 
TABS,ioos:station:wmo:42050:1,2017-09-03T08:00:00Z,28.8425,-94.2433,2.0,20.4861,11111222 
TABS,ioos:station:wmo:42050:1,2017-09-03T08:30:00Z,28.8425,-94.2433,2.0,20.876,11111222 
TABS,ioos:station:wmo:42050:1,2017-09-03T09:00:00Z,28.8425,-94.2433,2.0,21.3195,11111222 
TABS,ioos:station:wmo:42050:1,2017-09-03T09:30:00Z,28.8425,-94.2433,2.0,21.6343,11111222 
TABS,ioos:station:wmo:42050:1,2017-09-03T10:00:00Z,28.8425,-94.2433,2.0,21.8699,11111222 
TABS,ioos:station:wmo:42050:1,2017-09-03T10:30:00Z,28.8425,-94.2433,2.0,22.0531,11111222 
TABS,ioos:station:wmo:42050:1,2017-09-03T11:00:00Z,28.8425,-94.2433,2.0,22.1621,11111222 
TABS,ioos:station:wmo:42050:1,2017-09-03T11:30:00Z,28.8425,-94.2433,2.0,22.2408,11111222 
TABS,ioos:station:wmo:42050:1,2017-09-03T12:00:00Z,28.8425,-94.2433,2.0,22.2515,11111222 
TABS,ioos:station:wmo:42050:1,2017-09-03T12:30:00Z,28.8425,-94.2433,2.0,22.3055,11111222 
TABS,ioos:station:wmo:42050:1,2017-09-03T13:00:00Z,28.8425,-94.2433,2.0,22.1874,11111222 
TABS,ioos:station:wmo:42050:1,2017-09-03T13:30:00Z,28.8425,-94.2433,2.0,22.1922,11111222 
TABS,ioos:station:wmo:42050:1,2017-09-03T14:00:00Z,28.8425,-94.2433,2.0,21.7498,11111222 
TABS,ioos:station:wmo:42050:1,2017-09-03T14:30:00Z,28.8425,-94.2433,2.0,21.5129,11111222 
TABS,ioos:station:wmo:42050:1,2017-09-03T15:00:00Z,28.8425,-94.2433,2.0,21.755,11111222 
TABS,ioos:station:wmo:42050:1,2017-09-03T15:30:00Z,28.8425,-94.2433,2.0,21.5519,11111222 
TABS,ioos:station:wmo:42050:1,2017-09-03T16:00:00Z,28.8425,-94.2433,2.0,21.2884,11111222 
TABS,ioos:station:wmo:42050:1,2017-09-03T16:30:00Z,28.8425,-94.2433,2.0,20.9995,11111222 
TABS,ioos:station:wmo:42050:1,2017-09-03T17:00:00Z,28.8425,-94.2433,2.0,20.9694,11111222 
TABS,ioos:station:wmo:42050:1,2017-09-03T17:30:00Z,28.8425,-94.2433,2.0,20.993,11111222 
TABS,ioos:station:wmo:42050:1,2017-09-03T18:00:00Z,28.8425,-94.2433,2.0,20.9664,11111222 
TABS,ioos:station:wmo:42050:1,2017-09-03T18:30:00Z,28.8425,-94.2433,2.0,20.4986,11111222 
TABS,ioos:station:wmo:42050:1,2017-09-03T19:00:00Z,28.8425,-94.2433,2.0,20.3921,11111222 
TABS,ioos:station:wmo:42050:1,2017-09-03T19:30:00Z,28.8425,-94.2433,2.0,20.5579,11111222 
TABS,ioos:station:wmo:42050:1,2017-09-03T20:00:00Z,28.8425,-94.2433,2.0,20.0778,11111222 
TABS,ioos:station:wmo:42050:1,2017-09-03T20:30:00Z,28.8425,-94.2433,2.0,19.9228,11111222 
TABS,ioos:station:wmo:42050:1,2017-09-03T21:00:00Z,28.8425,-94.2433,2.0,19.6921,11111222 
TABS,ioos:station:wmo:42050:1,2017-09-03T21:30:00Z,28.8425,-94.2433,2.0,19.3779,11111222 
TABS,ioos:station:wmo:42050:1,2017-09-03T22:00:00Z,28.8425,-94.2433,2.0,18.884,11111222 
TABS,ioos:station:wmo:42050:1,2017-09-03T22:30:00Z,28.8425,-94.2433,2.0,18.6416,11111222 
TABS,ioos:station:wmo:42050:1,2017-09-03T23:00:00Z,28.8425,-94.2433,2.0,18.439,11111222 
TABS,ioos:station:wmo:42050:1,2017-09-03T23:30:00Z,28.8425,-94.2433,2.0,18.4138,11111222 
TABS,ioos:station:wmo:42050:1,2017-09-04T00:00:00Z,28.8425,-94.2433,2.0,18.5467,11111222 
TABS,ioos:station:wmo:42050:1,2017-09-04T00:30:00Z,28.8425,-94.2433,2.0,18.4153,11111222 
TABS,ioos:station:wmo:42050:1,2017-09-04T01:00:00Z,28.8425,-94.2433,2.0,18.4642,11111222 
TABS,ioos:station:wmo:42050:1,2017-09-04T01:30:00Z,28.8425,-94.2433,2.0,19.233,11111222 
TABS,ioos:station:wmo:42050:1,2017-09-04T02:00:00Z,28.8425,-94.2433,2.0,18.9955,11111222 
TABS,ioos:station:wmo:42050:1,2017-09-04T02:30:00Z,28.8425,-94.2433,2.0,18.7385,11111222 
TABS,ioos:station:wmo:42050:1,2017-09-04T03:00:00Z,28.8425,-94.2433,2.0,18.7875,11111222 
TABS,ioos:station:wmo:42050:1,2017-09-04T03:30:00Z,28.8425,-94.2433,2.0,18.6795,11111222 
TABS,ioos:station:wmo:42050:1,2017-09-04T04:00:00Z,28.8425,-94.2433,2.0,18.88,11111222 
TABS,ioos:station:wmo:42050:1,2017-09-04T04:30:00Z,28.8425,-94.2433,2.0,19.1929,11111222 
TABS,ioos:station:wmo:42050:1,2017-09-04T05:00:00Z,28.8425,-94.2433,2.0,19.5802,11111222 
TABS,ioos:station:wmo:42050:1,2017-09-04T05:30:00Z,28.8425,-94.2433,2.0,19.748,11111222 
TABS,ioos:station:wmo:42050:1,2017-09-04T06:00:00Z,28.8425,-94.2433,2.0,20.428,11111222 
TABS,ioos:station:wmo:42050:1,2017-09-04T06:30:00Z,28.8425,-94.2433,2.0,21.0773,11111222 
TABS,ioos:station:wmo:42050:1,2017-09-04T07:00:00Z,28.8425,-94.2433,2.0,21.2906,11111222 
TABS,ioos:station:wmo:42050:1,2017-09-04T07:30:00Z,28.8425,-94.2433,2.0,21.4031,11111222 
TABS,ioos:station:wmo:42050:1,2017-09-04T08:00:00Z,28.8425,-94.2433,2.0,21.466,11111222 
TABS,ioos:station:wmo:42050:1,2017-09-04T08:30:00Z,28.8425,-94.2433,2.0,21.637,11111222 
TABS,ioos:station:wmo:42050:1,2017-09-04T09:00:00Z,28.8425,-94.2433,2.0,21.6517,11111222 
TABS,ioos:station:wmo:42050:1,2017-09-04T09:30:00Z,28.8425,-94.2433,2.0,21.671,11111222 
TABS,ioos:station:wmo:42050:1,2017-09-04T10:00:00Z,28.8425,-94.2433,2.0,21.7051,11111222 
TABS,ioos:station:wmo:42050:1,2017-09-04T10:30:00Z,28.8425,-94.2433,2.0,21.7008,11111222 
TABS,ioos:station:wmo:42050:1,2017-09-04T11:00:00Z,28.8425,-94.2433,2.0,21.7639,11111222 
TABS,ioos:station:wmo:42050:1,2017-09-04T11:30:00Z,28.8425,-94.2433,2.0,21.724,11111222 
TABS,ioos:station:wmo:42050:1,2017-09-04T12:00:00Z,28.8425,-94.2433,2.0,21.7519,11111222 
TABS,ioos:station:wmo:42050:1,2017-09-04T12:30:00Z,28.8425,-94.2433,2.0,21.7247,11111222 
TABS,ioos:station:wmo:42050:1,2017-09-04T13:00:00Z,28.8425,-94.2433,2.0,21.7073,11111222 
TABS,ioos:station:wmo:42050:1,2017-09-04T13:30:00Z,28.8425,-94.2433,2.0,21.7012,11111222 
TABS,ioos:station:wmo:42050:1,2017-09-04T14:00:00Z,28.8425,-94.2433,2.0,21.6731,11111222 
TABS,ioos:station:wmo:42050:1,2017-09-04T14:30:00Z,28.8425,-94.2433,2.0,21.6516,11111222 
TABS,ioos:station:wmo:42050:1,2017-09-04T15:00:00Z,28.8425,-94.2433,2.0,21.6181,11111222 
TABS,ioos:station:wmo:42050:1,2017-09-04T15:30:00Z,28.8425,-94.2433,2.0,21.5473,11111222 
TABS,ioos:station:wmo:42050:1,2017-09-04T16:00:00Z,28.8425,-94.2433,2.0,21.5289,11111222 
TABS,ioos:station:wmo:42050:1,2017-09-04T16:30:00Z,28.8425,-94.2433,2.0,21.4482,11111222 
TABS,ioos:station:wmo:42050:1,2017-09-04T17:00:00Z,28.8425,-94.2433,2.0,21.3547,11111222 
TABS,ioos:station:wmo:42050:1,2017-09-04T17:30:00Z,28.8425,-94.2433,2.0,21.2569,11111222 
TABS,ioos:station:wmo:42050:1,2017-09-04T18:00:00Z,28.8425,-94.2433,2.0,21.1997,11111222 
TABS,ioos:station:wmo:42050:1,2017-09-04T18:30:00Z,28.8425,-94.2433,2.0,21.1128,11111222 
TABS,ioos:station:wmo:42050:1,2017-09-04T19:00:00Z,28.8425,-94.2433,2.0,21.2352,11111222 
TABS,ioos:station:wmo:42050:1,2017-09-04T19:30:00Z,28.8425,-94.2433,2.0,21.4748,11111222 
TABS,ioos:station:wmo:42050:1,2017-09-04T20:00:00Z,28.8425,-94.2433,2.0,21.3385,11111222 
TABS,ioos:station:wmo:42050:1,2017-09-04T20:30:00Z,28.8425,-94.2433,2.0,21.9783,11111222 
TABS,ioos:station:wmo:42050:1,2017-09-04T21:00:00Z,28.8425,-94.2433,2.0,21.2056,11111222 
TABS,ioos:station:wmo:42050:1,2017-09-04T21:30:00Z,28.8425,-94.2433,2.0,21.1048,11111222 
TABS,ioos:station:wmo:42050:1,2017-09-04T22:00:00Z,28.8425,-94.2433,2.0,20.9754,11111222 
TABS,ioos:station:wmo:42050:1,2017-09-04T22:30:00Z,28.8425,-94.2433,2.0,20.6978,11111222 
TABS,ioos:station:wmo:42050:1,2017-09-04T23:00:00Z,28.8425,-94.2433,2.0,20.8819,11111222 
TABS,ioos:station:wmo:42050:1,2017-09-04T23:30:00Z,28.8425,-94.2433,2.0,20.4165,11111222 
TABS,ioos:station:wmo:42050:1,2017-09-05T00:00:00Z,28.8425,-94.2433,2.0,20.0336,11111222 
TABS,ioos:station:wmo:42050:1,2017-09-05T00:30:00Z,28.8425,-94.2433,2.0,19.9375,11111222 
TABS,ioos:station:wmo:42050:1,2017-09-05T01:00:00Z,28.8425,-94.2433,2.0,19.6374,11111222 
TABS,ioos:station:wmo:42050:1,2017-09-05T01:30:00Z,28.8425,-94.2433,2.0,19.6099,11111222 
TABS,ioos:station:wmo:42050:1,2017-09-05T02:00:00Z,28.8425,-94.2433,2.0,19.542,11111222 
TABS,ioos:station:wmo:42050:1,2017-09-05T02:30:00Z,28.8425,-94.2433,2.0,19.3905,11111222 
TABS,ioos:station:wmo:42050:1,2017-09-05T03:00:00Z,28.8425,-94.2433,2.0,19.3743,11111222 
TABS,ioos:station:wmo:42050:1,2017-09-05T03:30:00Z,28.8425,-94.2433,2.0,19.307,11111222 
TABS,ioos:station:wmo:42050:1,2017-09-05T04:00:00Z,28.8425,-94.2433,2.0,19.2652,11111222 
TABS,ioos:station:wmo:42050:1,2017-09-05T04:30:00Z,28.8425,-94.2433,2.0,19.2424,11111222 
TABS,ioos:station:wmo:42050:1,2017-09-05T05:00:00Z,28.8425,-94.2433,2.0,19.2227,11111222 
TABS,ioos:station:wmo:42050:1,2017-09-05T05:30:00Z,28.8425,-94.2433,2.0,19.169,11111222 
TABS,ioos:station:wmo:42050:1,2017-09-05T06:00:00Z,28.8425,-94.2433,2.0,19.1571,11111222 
TABS,ioos:station:wmo:42050:1,2017-09-05T06:30:00Z,28.8425,-94.2433,2.0,19.211,11111222 
TABS,ioos:station:wmo:42050:1,2017-09-05T07:00:00Z,28.8425,-94.2433,2.0,19.2713,11111222 
TABS,ioos:station:wmo:42050:1,2017-09-05T07:30:00Z,28.8425,-94.2433,2.0,19.2545,11111222 
TABS,ioos:station:wmo:42050:1,2017-09-05T08:00:00Z,28.8425,-94.2433,2.0,19.2442,11111222 
TABS,ioos:station:wmo:42050:1,2017-09-05T08:30:00Z,28.8425,-94.2433,2.0,19.3017,11111222 
TABS,ioos:station:wmo:42050:1,2017-09-05T09:00:00Z,28.8425,-94.2433,2.0,19.247,11111222 
TABS,ioos:station:wmo:42050:1,2017-09-05T09:30:00Z,28.8425,-94.2433,2.0,19.7859,11111222 
TABS,ioos:station:wmo:42050:1,2017-09-05T10:00:00Z,28.8425,-94.2433,2.0,19.2442,11111222 
TABS,ioos:station:wmo:42050:1,2017-09-05T10:30:00Z,28.8425,-94.2433,2.0,19.1023,11111222 
TABS,ioos:station:wmo:42050:1,2017-09-05T11:00:00Z,28.8425,-94.2433,2.0,19.0289,11111222 
TABS,ioos:station:wmo:42050:1,2017-09-05T11:30:00Z,28.8425,-94.2433,2.0,18.9778,11111222 
TABS,ioos:station:wmo:42050:1,2017-09-05T12:00:00Z,28.8425,-94.2433,2.0,18.945,11111222 
TABS,ioos:station:wmo:42050:1,2017-09-05T12:30:00Z,28.8425,-94.2433,2.0,18.9484,11111222 
TABS,ioos:station:wmo:42050:1,2017-09-05T13:00:00Z,28.8425,-94.2433,2.0,18.9442,11111222 
TABS,ioos:station:wmo:42050:1,2017-09-05T13:30:00Z,28.8425,-94.2433,2.0,18.987,11111222 
TABS,ioos:station:wmo:42050:1,2017-09-05T14:00:00Z,28.8425,-94.2433,2.0,19.0515,11111222 
TABS,ioos:station:wmo:42050:1,2017-09-05T14:30:00Z,28.8425,-94.2433,2.0,19.118,11111222 
TABS,ioos:station:wmo:42050:1,2017-09-05T15:00:00Z,28.8425,-94.2433,2.0,19.1413,11111222 
TABS,ioos:station:wmo:42050:1,2017-09-05T15:30:00Z,28.8425,-94.2433,2.0,19.1922,11111222 
TABS,ioos:station:wmo:42050:1,2017-09-05T16:00:00Z,28.8425,-94.2433,2.0,19.217,11111222 
TABS,ioos:station:wmo:42050:1,2017-09-05T16:30:00Z,28.8425,-94.2433,2.0,19.4443,11111222 
TABS,ioos:station:wmo:42050:1,2017-09-05T17:00:00Z,28.8425,-94.2433,2.0,19.3261,11111222 
TABS,ioos:station:wmo:42050:1,2017-09-05T17:30:00Z,28.8425,-94.2433,2.0,19.3671,11111222 
TABS,ioos:station:wmo:42050:1,2017-09-05T18:00:00Z,28.8425,-94.2433,2.0,19.5633,11111222 
TABS,ioos:station:wmo:42050:1,2017-09-05T18:30:00Z,28.8425,-94.2433,2.0,19.748,11111222 
TABS,ioos:station:wmo:42050:1,2017-09-05T19:00:00Z,28.8425,-94.2433,2.0,19.7802,11111222 
TABS,ioos:station:wmo:42050:1,2017-09-05T19:30:00Z,28.8425,-94.2433,2.0,19.8505,11111222 
TABS,ioos:station:wmo:42050:1,2017-09-05T20:00:00Z,28.8425,-94.2433,2.0,19.7522,11111222 
TABS,ioos:station:wmo:42050:1,2017-09-05T20:30:00Z,28.8425,-94.2433,2.0,19.7766,11111222 
TABS,ioos:station:wmo:42050:1,2017-09-05T21:00:00Z,28.8425,-94.2433,2.0,19.7584,11111222 
TABS,ioos:station:wmo:42050:1,2017-09-05T21:30:00Z,28.8425,-94.2433,2.0,19.7792,11111222 
TABS,ioos:station:wmo:42050:1,2017-09-05T22:00:00Z,28.8425,-94.2433,2.0,19.8002,11111222 
TABS,ioos:station:wmo:42050:1,2017-09-05T22:30:00Z,28.8425,-94.2433,2.0,19.8188,11111222 
TABS,ioos:station:wmo:42050:1,2017-09-05T23:00:00Z,28.8425,-94.2433,2.0,19.829,11111222 
TABS,ioos:station:wmo:42050:1,2017-09-05T23:30:00Z,28.8425,-94.2433,2.0,19.9499,11111222 
TABS,ioos:station:wmo:42050:1,2017-09-06T00:00:00Z,28.8425,-94.2433,2.0,20.1091,11111222 
TABS,ioos:station:wmo:42050:1,2017-09-06T00:30:00Z,28.8425,-94.2433,2.0,21.5981,11111222 
TABS,ioos:station:wmo:42050:1,2017-09-06T01:00:00Z,28.8425,-94.2433,2.0,21.6999,11111222 
TABS,ioos:station:wmo:42050:1,2017-09-06T01:30:00Z,28.8425,-94.2433,2.0,21.8604,11111222 
TABS,ioos:station:wmo:42050:1,2017-09-06T02:00:00Z,28.8425,-94.2433,2.0,23.5625,11111222 
TABS,ioos:station:wmo:42050:1,2017-09-06T02:30:00Z,28.8425,-94.2433,2.0,23.9231,11111222 
TABS,ioos:station:wmo:42050:1,2017-09-06T03:00:00Z,28.8425,-94.2433,2.0,23.6574,11111222 
TABS,ioos:station:wmo:42050:1,2017-09-06T03:30:00Z,28.8425,-94.2433,2.0,23.7775,11111222 
TABS,ioos:station:wmo:42050:1,2017-09-06T04:00:00Z,28.8425,-94.2433,2.0,23.6171,11111222 
TABS,ioos:station:wmo:42050:1,2017-09-06T04:30:00Z,28.8425,-94.2433,2.0,23.674,11111222 
TABS,ioos:station:wmo:42050:1,2017-09-06T05:00:00Z,28.8425,-94.2433,2.0,22.9303,11111222 
TABS,ioos:station:wmo:42050:1,2017-09-06T05:30:00Z,28.8425,-94.2433,2.0,23.0612,11111222 
TABS,ioos:station:wmo:42050:1,2017-09-06T06:00:00Z,28.8425,-94.2433,2.0,23.4356,11111222 
TABS,ioos:station:wmo:42050:1,2017-09-06T06:30:00Z,28.8425,-94.2433,2.0,22.6366,11111222 
TABS,ioos:station:wmo:42050:1,2017-09-06T07:00:00Z,28.8425,-94.2433,2.0,22.5268,11111222 
TABS,ioos:station:wmo:42050:1,2017-09-06T07:30:00Z,28.8425,-94.2433,2.0,23.1999,11111222 
TABS,ioos:station:wmo:42050:1,2017-09-06T08:00:00Z,28.8425,-94.2433,2.0,23.0237,11111222 
TABS,ioos:station:wmo:42050:1,2017-09-06T08:30:00Z,28.8425,-94.2433,2.0,22.6397,11111222 
TABS,ioos:station:wmo:42050:1,2017-09-06T09:00:00Z,28.8425,-94.2433,2.0,22.676,11111222 
TABS,ioos:station:wmo:42050:1,2017-09-06T09:30:00Z,28.8425,-94.2433,2.0,22.7384,11111222 
TABS,ioos:station:wmo:42050:1,2017-09-06T10:00:00Z,28.8425,-94.2433,2.0,22.4181,11111222 
TABS,ioos:station:wmo:42050:1,2017-09-06T10:30:00Z,28.8425,-94.2433,2.0,22.0761,11111222 
TABS,ioos:station:wmo:42050:1,2017-09-06T11:00:00Z,28.8425,-94.2433,2.0,21.9368,11111222 
TABS,ioos:station:wmo:42050:1,2017-09-06T11:30:00Z,28.8425,-94.2433,2.0,21.8888,11111222 
TABS,ioos:station:wmo:42050:1,2017-09-06T12:00:00Z,28.8425,-94.2433,2.0,21.841,11111222 
TABS,ioos:station:wmo:42050:1,2017-09-06T12:30:00Z,28.8425,-94.2433,2.0,22.0012,11111222 